Погода в Бадаме

Казахстан     42°23′20″N   69°15′18″E
темп.,
°C
ветер,
м/с
пор.,
м/с
влажн.,
%
обл.,
%
осадки,
мм/ч
давл.,
гПа
погр.,
м
2 марта, вт
вт200:00+8ююз612540 0.0 1019188
03:00+7ююз615540 0.0 1019251
06:00+6ююз514560 0.0 1020232
09:00+5ююз410630 0.0 1022198
12:00+11зюз68460 0.0 1023722
15:00+12з574267 0.0 10221058
18:00+10зсз464783 0.0 1022476
21:00+7ссв3565100 0.0 1024218
3 марта, ср
ср300:00+5ссв2380100 0.0 1025124
03:00+5с2385100 0.1 1025172
06:00+2с4594100 0.3 1025190
09:00+2с3396100 1.1 1025126
12:00+4ссз2388100 1.3 1024233
15:00+7с337793 0.0 1023540
18:00+7с337696 0.0 1022432
21:00+5св2287100 0.5 1023173
4 марта, чт
чт400:00+5вюв1290100 0.9 102291
03:00+5ссв118997 0.0 102126
06:00+5св129090 0.0 102124
09:00+6юв228785 0.0 102136
12:00+11ююз246477 0.0 1019522
15:00+16юз71038100 0.0 10162049
18:00+15ююз6115088 0.0 10141145
21:00+10юз131987100 4.6 10161202
5 марта, пт
пт500:00+6з81279100 7.8 10231063
03:00+4з4674100 0.2 1027924
06:00+4з347098 0.3 1032861
09:00+3зсз237462 0.0 1034274
12:00+5с216331 0.0 1032857
15:00+8ссв33510 0.0 1029933
18:00+8ссв45490 0.0 1026862
21:00+4св33700 0.0 102662
6 марта, сб
сб600:00+3в48720 0.0 1024183
03:00+3всв586372 0.0 1020138
06:00+3всв465686 0.0 101796
09:00+4всв3548100 0.0 101581
12:00+10св3539100 0.0 1012257
15:00+13с2332100 0.0 1012443
18:00+11з3550100 0.0 1013234
21:00+8ссз1162100 0.0 101432